Temp
-27 -27 -27 -27 -27 -27 -27 -28 -29 -30 -31 -32 -32 -32 -32 -32 -32 -32 -32 -32 -32 -32 -32 -32 -31 -31 -31 -31 -31 -30 -30 -30 -30 -29 -29 -29 -29 -28 -28 -27 -27 -27 -27 -27 -27 -27 -26 -26 -25 -25 -25 -25 -26 -26 -26 -25 -25 -25 -24 -24 -23 -23 -23
-28 -28 -28 -27 -27 -28 -28 -29 -31 -32 -32 -33 -33 -32 -33 -33 -33 -32 -32 -32 -32 -32 -32 -32 -32 -32 -31 -31 -31 -31 -30 -30 -31 -30 -30 -30 -30 -29 -29 -28 -27 -27 -27 -27 -27 -27 -27 -26 -26 -26 -26 -26 -26 -26 -26 -26 -25 -25 -24 -24 -24 -23 -23
-28 -28 -28 -28 -28 -28 -29 -31 -32 -33 -34 -34 -34 -33 -33 -33 -33 -33 -33 -33 -33 -33 -33 -33 -32 -32 -32 -32 -31 -31 -31 -31 -31 -31 -31 -31 -30 -30 -29 -29 -28 -27 -27 -27 -28 -28 -27 -27 -26 -26 -26 -26 -26 -26 -26 -26 -25 -25 -25 -24 -24 -24 -23
-28 -28 -28 -28 -29 -30 -31 -32 -33 -33 -34 -34 -34 -34 -33 -33 -33 -33 -33 -33 -33 -33 -33 -33 -33 -32 -32 -32 -32 -32 -31 -31 -31 -32 -31 -31 -31 -31 -30 -29 -29 -28 -28 -28 -28 -28 -28 -27 -27 -26 -26 -26 -26 -26 -26 -26 -26 -25 -25 -25 -24 -24 -24
-29 -29 -29 -29 -30 -31 -32 -33 -33 -34 -34 -35 -34 -34 -34 -34 -33 -33 -33 -33 -33 -33 -33 -33 -33 -33 -33 -32 -32 -32 -32 -32 -32 -32 -32 -32 -31 -31 -30 -30 -29 -29 -28 -28 -28 -28 -28 -27 -27 -27 -27 -27 -27 -27 -27 -26 -26 -26 -25 -25 -25 -24 -24
-29 -29 -30 -30 -31 -32 -33 -33 -34 -34 -34 -35 -35 -34 -34 -34 -34 -33 -33 -33 -33 -33 -33 -33 -33 -33 -33 -33 -33 -33 -32 -32 -32 -32 -32 -32 -32 -31 -31 -30 -30 -29 -29 -29 -29 -29 -28 -28 -27 -27 -27 -27 -27 -27 -27 -27 -26 -26 -26 -25 -25 -25 -25
-29 -30 -31 -32 -32 -33 -33 -34 -34 -34 -35 -35 -35 -34 -34 -34 -34 -34 -34 -33 -34 -34 -34 -34 -34 -34 -33 -33 -33 -33 -33 -32 -33 -33 -32 -32 -32 -32 -31 -31 -30 -30 -29 -29 -29 -29 -28 -28 -28 -28 -28 -27 -27 -27 -27 -27 -27 -26 -26 -26 -26 -25 -25
-30 -31 -32 -33 -33 -33 -33 -34 -34 -34 -35 -35 -35 -35 -34 -34 -34 -34 -34 -34 -34 -34 -34 -34 -34 -34 -34 -34 -33 -33 -33 -33 -33 -33 -32 -32 -32 -32 -32 -31 -30 -30 -30 -29 -29 -29 -29 -28 -28 -28 -28 -28 -27 -27 -27 -27 -27 -27 -26 -26 -26 -26 -26
-31 -32 -33 -33 -34 -34 -34 -34 -35 -35 -35 -35 -35 -35 -35 -34 -34 -34 -34 -34 -34 -34 -34 -34 -34 -34 -34 -34 -34 -34 -34 -33 -33 -33 -32 -32 -32 -32 -32 -31 -31 -30 -30 -30 -29 -29 -29 -29 -28 -28 -28 -28 -28 -28 -27 -27 -27 -27 -27 -26 -26 -26 -26
-32 -33 -34 -34 -34 -34 -34 -34 -35 -35 -35 -35 -35 -35 -35 -34 -34 -34 -34 -34 -34 -34 -34 -34 -34 -34 -34 -35 -35 -35 -34 -34 -33 -32 -32 -32 -32 -32 -32 -31 -31 -31 -30 -30 -30 -29 -29 -29 -29 -29 -28 -28 -28 -28 -28 -27 -27 -27 -27 -27 -27 -27 -27
-33 -34 -34 -34 -35 -35 -34 -35 -35 -35 -35 -35 -35 -35 -35 -34 -35 -35 -34 -34 -34 -34 -34 -34 -34 -34 -35 -35 -35 -35 -34 -34 -33 -33 -32 -32 -32 -32 -32 -31 -31 -31 -30 -30 -30 -30 -29 -29 -29 -29 -29 -28 -28 -28 -28 -28 -28 -27 -27 -27 -27 -27 -27
-33 -34 -34 -35 -35 -35 -35 -35 -36 -35 -35 -36 -35 -35 -35 -35 -35 -35 -35 -34 -34 -34 -34 -34 -34 -35 -35 -35 -35 -34 -34 -33 -33 -33 -32 -32 -32 -32 -32 -32 -31 -31 -31 -30 -30 -30 -29 -29 -29 -29 -29 -29 -29 -28 -28 -28 -28 -28 -28 -28 -28 -27 -27
-34 -34 -34 -35 -35 -35 -35 -36 -36 -36 -36 -36 -36 -35 -35 -35 -35 -35 -35 -35 -34 -34 -34 -34 -34 -35 -35 -35 -35 -34 -34 -33 -33 -33 -33 -32 -32 -32 -32 -32 -31 -31 -31 -30 -30 -30 -30 -29 -29 -29 -29 -29 -29 -29 -28 -28 -28 -28 -28 -28 -28 -27 -27
-34 -34 -35 -35 -35 -35 -35 -36 -36 -36 -36 -36 -36 -35 -35 -35 -35 -35 -35 -35 -34 -34 -34 -34 -34 -35 -35 -35 -34 -34 -34 -34 -33 -33 -33 -33 -32 -32 -32 -32 -31 -31 -31 -30 -30 -30 -30 -30 -29 -29 -29 -29 -29 -29 -29 -28 -28 -28 -28 -28 -28 -28 -28
-35 -35 -35 -35 -35 -35 -35 -36 -36 -36 -36 -36 -35 -35 -35 -35 -35 -35 -34 -34 -34 -34 -34 -34 -35 -35 -35 -34 -34 -34 -34 -34 -33 -33 -33 -33 -32 -32 -32 -31 -31 -31 -31 -31 -30 -30 -30 -30 -30 -29 -29 -29 -29 -29 -29 -29 -29 -29 -29 -28 -28 -28 -28
-35 -35 -35 -35 -35 -35 -35 -36 -36 -36 -36 -36 -35 -35 -35 -35 -35 -35 -34 -34 -34 -34 -34 -34 -35 -35 -35 -35 -34 -34 -34 -33 -33 -33 -33 -33 -32 -32 -32 -31 -31 -31 -31 -31 -31 -30 -30 -30 -30 -29 -29 -29 -29 -29 -29 -29 -29 -29 -29 -29 -29 -28 -28
-36 -36 -36 -35 -35 -35 -35 -36 -36 -36 -36 -35 -35 -35 -35 -35 -35 -35 -34 -34 -34 -34 -34 -35 -35 -35 -35 -35 -34 -34 -34 -33 -33 -33 -33 -33 -32 -32 -32 -31 -31 -31 -31 -31 -31 -30 -30 -30 -29 -29 -29 -29 -29 -29 -30 -30 -30 -29 -29 -29 -29 -29 -29
-36 -36 -36 -36 -36 -36 -35 -36 -36 -36 -35 -35 -35 -35 -35 -35 -35 -34 -34 -34 -34 -34 -35 -35 -35 -35 -35 -35 -34 -34 -34 -33 -33 -33 -33 -33 -32 -32 -31 -31 -31 -31 -31 -31 -31 -30 -30 -30 -29 -29 -29 -29 -29 -30 -30 -30 -30 -30 -30 -30 -29 -29 -29
-36 -36 -36 -36 -36 -36 -35 -35 -36 -35 -35 -35 -35 -35 -35 -35 -35 -34 -34 -34 -34 -35 -35 -35 -35 -35 -35 -35 -35 -34 -34 -34 -33 -33 -33 -33 -32 -32 -32 -32 -31 -31 -31 -31 -31 -30 -30 -30 -30 -29 -29 -30 -30 -30 -30 -30 -30 -30 -30 -30 -30 -29 -29
-36 -36 -36 -36 -36 -36 -35 -35 -35 -35 -35 -35 -35 -35 -35 -35 -34 -34 -34 -34 -34 -35 -35 -36 -36 -36 -35 -35 -35 -35 -34 -34 -33 -33 -33 -32 -32 -32 -32 -32 -32 -31 -31 -31 -31 -30 -30 -30 -30 -29 -29 -30 -30 -30 -30 -30 -30 -31 -31 -30 -30 -30 -29
-36 -36 -36 -36 -36 -36 -35 -35 -35 -35 -35 -35 -35 -35 -35 -34 -34 -34 -35 -35 -35 -35 -36 -36 -36 -36 -36 -35 -35 -35 -34 -34 -33 -33 -33 -32 -32 -32 -32 -32 -31 -31 -31 -31 -30 -30 -30 -30 -29 -29 -29 -30 -30 -30 -30 -31 -31 -31 -31 -30 -30 -30 -30
-36 -36 -36 -36 -36 -35 -35 -35 -35 -35 -35 -35 -35 -35 -35 -34 -35 -35 -35 -35 -35 -36 -36 -36 -36 -36 -35 -35 -35 -35 -34 -34 -33 -33 -33 -32 -32 -32 -32 -31 -31 -31 -31 -30 -30 -30 -30 -30 -30 -30 -30 -30 -30 -30 -31 -31 -31 -30 -30 -30 -30 -30 -30
-37 -36 -36 -36 -36 -35 -35 -35 -35 -35 -35 -35 -35 -35 -35 -35 -35 -35 -36 -36 -36 -36 -36 -36 -36 -36 -35 -35 -35 -34 -34 -34 -33 -33 -33 -33 -32 -32 -32 -31 -31 -31 -31 -30 -30 -30 -30 -30 -30 -30 -30 -30 -31 -31 -31 -31 -31 -30 -29 -30 -30 -30 -31
-37 -36 -36 -36 -36 -35 -35 -35 -35 -35 -35 -35 -35 -35 -35 -35 -35 -35 -36 -36 -36 -36 -36 -36 -36 -35 -35 -35 -35 -34 -34 -34 -33 -33 -33 -33 -32 -32 -31 -31 -31 -31 -31 -31 -30 -30 -30 -30 -30 -30 -30 -31 -31 -31 -31 -31 -30 -29 -29 -30 -30 -31 -32
-37 -36 -36 -36 -36 -35 -35 -35 -35 -35 -35 -35 -35 -35 -35 -35 -35 -35 -35 -35 -36 -36 -36 -36 -36 -35 -35 -35 -34 -34 -34 -33 -33 -33 -33 -33 -32 -32 -31 -31 -31 -31 -31 -31 -30 -30 -30 -30 -30 -31 -31 -31 -30 -30 -30 -30 -30 -30 -30 -31 -31 -31 -32
-37 -36 -36 -36 -36 -35 -35 -35 -35 -35 -35 -35 -35 -35 -35 -35 -35 -35 -35 -35 -35 -35 -35 -35 -35 -35 -35 -34 -34 -34 -34 -33 -33 -33 -33 -33 -32 -32 -31 -31 -31 -31 -31 -31 -30 -30 -31 -31 -31 -31 -30 -30 -30 -30 -30 -31 -31 -30 -31 -31 -31 -32 -32
-36 -36 -36 -36 -36 -35 -35 -35 -35 -35 -35 -35 -35 -35 -35 -35 -35 -35 -35 -35 -35 -35 -35 -35 -35 -34 -34 -34 -34 -34 -34 -33 -33 -33 -33 -32 -32 -32 -31 -31 -31 -31 -31 -31 -31 -31 -31 -31 -31 -30 -30 -30 -30 -30 -31 -31 -31 -31 -31 -31 -31 -32 -32
-36 -36 -36 -36 -36 -35 -35 -35 -35 -35 -35 -35 -35 -35 -35 -35 -35 -35 -35 -35 -35 -35 -35 -35 -34 -34 -34 -34 -34 -34 -33 -33 -33 -33 -32 -32 -32 -32 -31 -31 -31 -31 -31 -31 -31 -31 -31 -31 -31 -30 -30 -30 -31 -31 -31 -31 -31 -31 -30 -30 -31 -32 -32
-37 -36 -36 -36 -36 -36 -35 -35 -35 -35 -35 -35 -34 -34 -34 -34 -35 -35 -35 -34 -34 -34 -34 -34 -34 -34 -34 -34 -34 -33 -33 -33 -33 -33 -32 -32 -32 -32 -32 -31 -31 -31 -31 -31 -31 -31 -31 -31 -31 -31 -31 -31 -31 -31 -31 -30 -30 -31 -30 -31 -31 -32 -32
-37 -36 -36 -36 -36 -36 -35 -35 -35 -35 -35 -35 -35 -34 -34 -34 -35 -35 -34 -34 -34 -34 -34 -34 -34 -34 -34 -34 -34 -34 -34 -33 -33 -33 -33 -32 -32 -32 -32 -32 -32 -32 -32 -32 -32 -31 -31 -31 -31 -31 -31 -30 -30 -31 -31 -31 -31 -31 -31 -31 -31 -32 -32
-37 -36 -36 -36 -36 -36 -35 -35 -35 -35 -35 -35 -35 -34 -34 -34 -34 -34 -34 -34 -34 -34 -34 -34 -34 -34 -34 -34 -34 -34 -34 -33 -33 -33 -33 -33 -32 -32 -32 -32 -32 -32 -32 -32 -32 -31 -31 -31 -31 -31 -30 -30 -30 -31 -31 -31 -31 -31 -31 -31 -32 -32 -32
-37 -36 -36 -36 -36 -36 -35 -35 -35 -35 -35 -35 -35 -35 -34 -34 -34 -34 -34 -34 -34 -34 -34 -34 -34 -34 -34 -34 -34 -34 -34 -33 -33 -33 -33 -33 -33 -32 -32 -32 -32 -32 -32 -32 -32 -32 -31 -31 -31 -31 -30 -31 -31 -31 -31 -31 -31 -31 -31 -32 -32 -32 -32
-37 -36 -36 -36 -36 -36 -35 -35 -35 -35 -35 -35 -35 -35 -34 -34 -34 -34 -34 -34 -34 -34 -34 -34 -34 -34 -34 -34 -34 -34 -34 -33 -33 -33 -33 -33 -33 -32 -32 -32 -33 -33 -32 -32 -32 -32 -31 -31 -31 -31 -31 -31 -31 -31 -31 -31 -31 -32 -32 -32 -32 -32 -33
-37 -36 -36 -36 -36 -36 -35 -35 -35 -35 -35 -35 -35 -34 -34 -34 -34 -34 -34 -35 -35 -35 -34 -34 -34 -34 -34 -34 -34 -34 -34 -34 -33 -33 -33 -33 -33 -33 -33 -33 -33 -33 -32 -32 -32 -32 -31 -31 -31 -31 -31 -31 -31 -31 -31 -31 -32 -32 -32 -32 -33 -33 -33
-37 -36 -36 -36 -36 -36 -36 -35 -35 -35 -35 -35 -35 -34 -34 -34 -34 -35 -35 -35 -35 -35 -35 -35 -35 -35 -35 -35 -34 -34 -34 -33 -33 -33 -33 -33 -33 -33 -33 -33 -33 -32 -32 -32 -32 -31 -31 -31 -31 -31 -31 -31 -31 -31 -31 -32 -32 -32 -33 -33 -33 -33 -33
-37 -36 -36 -36 -36 -36 -36 -36 -36 -35 -35 -35 -35 -35 -35 -35 -35 -35 -35 -35 -35 -35 -35 -35 -35 -35 -35 -35 -34 -34 -34 -34 -33 -33 -33 -33 -33 -33 -33 -32 -32 -32 -32 -32 -32 -31 -31 -31 -31 -31 -32 -32 -32 -32 -32 -32 -32 -33 -33 -33 -34 -34 -34
Height
5360 5355 5351 5347 5342 5337 5330 5322 5316 5310 5304 5301 5300 5300 5299 5298 5297 5297 5298 5297 5297 5298 5298 5299 5300 5301 5302 5301 5302 5305 5308 5310 5313 5317 5321 5325 5329 5334 5339 5343 5347 5354 5357 5356 5357 5362 5364 5366 5369 5371 5374 5377 5379 5380 5382 5383 5385 5386 5387 5389 5391 5393 5396
5344 5339 5334 5329 5324 5318 5311 5305 5299 5294 5289 5286 5286 5286 5286 5285 5284 5284 5285 5285 5286 5286 5286 5287 5288 5290 5290 5289 5290 5293 5295 5298 5302 5305 5309 5314 5318 5323 5328 5332 5336 5341 5346 5347 5349 5352 5354 5356 5360 5362 5365 5368 5370 5372 5373 5375 5376 5377 5379 5380 5382 5384 5387
5327 5321 5316 5310 5305 5299 5293 5288 5284 5280 5276 5273 5272 5273 5273 5273 5272 5272 5273 5273 5274 5275 5274 5275 5277 5279 5279 5278 5279 5281 5284 5287 5291 5294 5299 5304 5308 5313 5317 5321 5325 5330 5335 5338 5340 5342 5345 5347 5350 5353 5356 5359 5362 5364 5365 5367 5368 5369 5371 5372 5373 5376 5378
5310 5303 5297 5292 5286 5281 5276 5272 5270 5266 5264 5261 5260 5260 5261 5261 5260 5260 5261 5262 5263 5263 5263 5264 5266 5268 5268 5267 5268 5271 5272 5275 5280 5284 5289 5294 5298 5303 5307 5310 5315 5320 5325 5329 5332 5334 5336 5338 5342 5345 5347 5351 5353 5355 5357 5359 5360 5361 5363 5364 5366 5367 5369
5295 5287 5280 5274 5269 5264 5261 5258 5256 5253 5251 5249 5247 5248 5249 5249 5248 5249 5250 5250 5251 5252 5252 5253 5255 5257 5257 5256 5258 5260 5262 5265 5269 5274 5279 5284 5289 5293 5297 5300 5305 5310 5314 5319 5324 5326 5327 5330 5334 5336 5339 5342 5345 5347 5349 5351 5352 5354 5355 5356 5358 5359 5360
5281 5272 5264 5258 5253 5249 5246 5244 5242 5240 5239 5238 5235 5236 5237 5237 5237 5238 5238 5239 5241 5241 5242 5243 5244 5246 5246 5246 5248 5250 5251 5255 5259 5264 5269 5275 5279 5284 5287 5291 5295 5300 5305 5310 5315 5317 5319 5322 5326 5328 5331 5334 5337 5339 5341 5343 5345 5347 5347 5348 5350 5351 5352
5264 5257 5250 5244 5239 5236 5232 5230 5229 5228 5227 5226 5224 5224 5226 5226 5226 5227 5228 5229 5230 5231 5232 5233 5234 5235 5235 5236 5238 5239 5241 5244 5249 5255 5261 5266 5270 5274 5278 5282 5287 5291 5296 5302 5306 5309 5312 5315 5317 5320 5323 5326 5329 5332 5334 5336 5338 5339 5340 5342 5343 5344 5344
5246 5240 5235 5230 5226 5223 5220 5217 5216 5216 5215 5214 5213 5213 5214 5215 5215 5216 5217 5218 5220 5221 5222 5223 5224 5225 5225 5226 5227 5228 5231 5235 5240 5246 5252 5257 5261 5266 5270 5274 5278 5283 5288 5293 5298 5301 5304 5307 5310 5313 5315 5318 5321 5324 5326 5329 5331 5331 5333 5335 5336 5336 5337
5231 5224 5219 5216 5213 5210 5207 5205 5204 5204 5203 5203 5202 5201 5202 5204 5205 5206 5207 5208 5210 5211 5213 5214 5215 5215 5216 5215 5216 5218 5222 5227 5232 5238 5244 5248 5253 5257 5261 5265 5270 5275 5280 5285 5289 5293 5296 5299 5303 5305 5308 5311 5313 5316 5319 5322 5324 5325 5326 5329 5329 5330 5331
5217 5210 5204 5201 5199 5196 5194 5193 5192 5192 5192 5191 5191 5190 5191 5193 5194 5195 5197 5199 5201 5202 5204 5205 5206 5207 5206 5206 5207 5210 5214 5219 5225 5230 5236 5240 5244 5249 5253 5258 5262 5267 5272 5277 5282 5285 5288 5292 5296 5298 5301 5304 5306 5309 5312 5314 5316 5318 5320 5322 5322 5323 5325
5203 5197 5191 5187 5184 5183 5181 5181 5181 5181 5180 5180 5179 5179 5179 5182 5185 5186 5187 5189 5191 5193 5195 5196 5197 5198 5198 5198 5200 5204 5208 5212 5217 5222 5227 5232 5237 5241 5246 5250 5255 5260 5265 5269 5274 5277 5281 5285 5288 5290 5293 5297 5299 5302 5305 5307 5310 5312 5314 5315 5316 5317 5319
5188 5183 5178 5173 5171 5170 5168 5168 5169 5169 5169 5169 5169 5168 5169 5171 5175 5177 5178 5180 5182 5184 5186 5188 5189 5190 5190 5192 5194 5197 5201 5206 5210 5214 5219 5224 5229 5234 5238 5243 5248 5253 5257 5262 5266 5270 5274 5278 5281 5283 5287 5290 5293 5295 5298 5300 5303 5306 5307 5309 5310 5311 5313
5173 5168 5164 5160 5159 5158 5157 5157 5158 5158 5159 5159 5158 5159 5159 5161 5165 5168 5170 5172 5174 5176 5178 5180 5181 5182 5183 5185 5187 5191 5195 5199 5203 5207 5212 5216 5221 5226 5231 5235 5240 5245 5250 5254 5258 5263 5267 5270 5273 5276 5280 5283 5286 5289 5292 5294 5297 5299 5301 5303 5304 5306 5308
5158 5153 5150 5147 5146 5145 5145 5146 5147 5147 5148 5148 5148 5150 5150 5151 5156 5160 5162 5164 5166 5168 5170 5172 5173 5175 5177 5179 5181 5184 5188 5192 5196 5200 5204 5209 5214 5219 5224 5228 5233 5238 5243 5248 5252 5256 5260 5263 5266 5269 5272 5276 5280 5283 5285 5288 5291 5293 5295 5297 5299 5301 5303
5144 5140 5137 5135 5133 5134 5135 5136 5137 5137 5137 5138 5140 5141 5141 5143 5147 5151 5154 5156 5158 5160 5163 5164 5166 5168 5170 5173 5175 5178 5182 5185 5189 5194 5198 5203 5208 5213 5217 5222 5227 5232 5236 5241 5245 5249 5252 5255 5259 5262 5266 5270 5274 5277 5279 5282 5285 5287 5289 5291 5294 5296 5298
5131 5127 5125 5124 5122 5123 5125 5127 5127 5127 5128 5129 5131 5132 5133 5136 5140 5143 5147 5149 5151 5153 5155 5157 5159 5161 5164 5167 5169 5172 5175 5179 5183 5188 5193 5198 5203 5207 5211 5216 5220 5224 5229 5234 5238 5242 5245 5249 5252 5256 5260 5264 5268 5271 5273 5276 5278 5281 5283 5285 5288 5291 5293
5119 5116 5114 5113 5112 5113 5115 5118 5118 5118 5119 5121 5123 5124 5126 5129 5132 5136 5139 5141 5143 5145 5147 5149 5152 5155 5158 5161 5164 5166 5169 5173 5178 5183 5188 5192 5197 5201 5205 5210 5214 5218 5222 5227 5232 5235 5239 5242 5246 5250 5254 5258 5262 5265 5268 5270 5272 5275 5278 5280 5282 5285 5287
5107 5105 5104 5103 5103 5104 5106 5109 5109 5110 5111 5113 5115 5117 5119 5122 5125 5129 5132 5134 5136 5138 5139 5141 5145 5148 5151 5155 5158 5160 5163 5167 5172 5178 5182 5187 5190 5195 5200 5204 5208 5211 5216 5221 5225 5229 5233 5236 5240 5244 5249 5253 5256 5259 5262 5265 5267 5270 5273 5275 5277 5279 5282
5096 5096 5095 5094 5095 5096 5098 5100 5102 5102 5104 5107 5108 5110 5113 5115 5118 5122 5124 5126 5128 5130 5132 5134 5137 5141 5145 5149 5152 5154 5157 5161 5166 5172 5177 5181 5185 5190 5195 5198 5201 5205 5210 5214 5219 5223 5227 5231 5234 5239 5243 5247 5250 5254 5257 5259 5262 5265 5268 5270 5271 5274 5277
5086 5086 5086 5086 5087 5089 5090 5093 5094 5096 5098 5100 5103 5104 5106 5109 5112 5115 5117 5119 5121 5123 5124 5127 5131 5135 5139 5142 5145 5148 5152 5156 5161 5167 5171 5175 5180 5185 5187 5190 5194 5199 5204 5208 5213 5217 5221 5225 5229 5233 5237 5241 5245 5248 5251 5254 5256 5259 5262 5264 5267 5269 5272
5078 5078 5079 5079 5080 5082 5084 5086 5088 5090 5092 5095 5097 5099 5100 5103 5105 5108 5110 5111 5114 5116 5118 5122 5126 5129 5132 5135 5139 5142 5146 5151 5156 5161 5165 5170 5175 5177 5179 5184 5190 5194 5198 5202 5207 5211 5215 5220 5224 5228 5232 5236 5239 5243 5246 5248 5251 5253 5256 5259 5262 5265 5267
5070 5071 5072 5072 5074 5076 5078 5080 5082 5085 5087 5090 5092 5093 5095 5097 5099 5101 5103 5105 5108 5111 5114 5117 5120 5123 5126 5129 5133 5137 5141 5146 5151 5156 5160 5164 5167 5170 5174 5180 5185 5188 5193 5198 5202 5206 5211 5215 5219 5223 5227 5231 5234 5237 5240 5243 5245 5247 5250 5254 5257 5260 5263
5063 5064 5065 5067 5068 5070 5072 5075 5077 5080 5082 5085 5087 5088 5090 5093 5095 5097 5099 5101 5104 5106 5109 5112 5115 5117 5120 5124 5128 5132 5137 5141 5146 5151 5155 5158 5161 5165 5171 5175 5179 5184 5189 5193 5197 5202 5206 5210 5214 5217 5221 5225 5228 5231 5235 5237 5239 5241 5245 5249 5252 5256 5259
5057 5058 5060 5061 5063 5065 5068 5070 5073 5075 5077 5080 5082 5084 5086 5088 5091 5093 5095 5097 5100 5102 5104 5107 5109 5112 5115 5119 5123 5128 5132 5137 5141 5146 5149 5152 5156 5161 5166 5170 5175 5180 5184 5188 5193 5197 5201 5205 5208 5212 5215 5219 5222 5225 5228 5231 5233 5236 5240 5244 5248 5251 5255
5052 5053 5055 5057 5059 5061 5064 5066 5069 5071 5073 5075 5077 5079 5082 5084 5087 5089 5091 5093 5095 5098 5100 5102 5105 5107 5111 5114 5119 5123 5128 5132 5137 5141 5144 5148 5152 5157 5161 5166 5171 5175 5179 5184 5188 5192 5196 5200 5203 5206 5210 5213 5217 5220 5224 5227 5229 5232 5236 5240 5243 5247 5250
5048 5050 5051 5053 5055 5058 5060 5062 5065 5067 5069 5071 5073 5075 5078 5080 5082 5084 5086 5088 5090 5092 5095 5098 5100 5103 5107 5110 5115 5119 5124 5129 5133 5136 5140 5144 5148 5153 5158 5162 5166 5171 5175 5180 5184 5187 5191 5194 5197 5201 5205 5209 5213 5216 5220 5222 5225 5227 5231 5235 5238 5242 5245
5045 5046 5048 5050 5052 5055 5057 5059 5061 5063 5065 5067 5069 5071 5074 5076 5078 5079 5081 5083 5085 5088 5090 5093 5096 5099 5103 5107 5111 5116 5120 5124 5128 5132 5136 5140 5145 5149 5154 5158 5162 5167 5171 5175 5179 5182 5186 5189 5192 5196 5200 5204 5208 5211 5214 5217 5220 5222 5226 5229 5233 5237 5240
5042 5043 5045 5047 5049 5052 5054 5056 5058 5060 5062 5064 5066 5068 5071 5072 5073 5074 5076 5079 5081 5084 5087 5090 5093 5096 5100 5104 5108 5113 5117 5121 5125 5129 5133 5137 5142 5146 5150 5154 5158 5163 5167 5170 5174 5177 5181 5184 5188 5192 5196 5200 5203 5206 5209 5212 5215 5217 5220 5224 5228 5232 5235
5039 5041 5043 5045 5047 5049 5051 5053 5055 5057 5059 5061 5063 5066 5068 5069 5070 5071 5073 5076 5079 5082 5084 5087 5091 5094 5098 5102 5106 5110 5114 5118 5122 5126 5130 5134 5138 5142 5147 5151 5155 5159 5163 5166 5169 5173 5176 5180 5184 5187 5191 5195 5198 5201 5204 5207 5210 5213 5215 5219 5223 5227 5230
5036 5039 5041 5043 5045 5047 5049 5051 5052 5054 5056 5059 5061 5063 5065 5066 5067 5069 5071 5074 5077 5080 5082 5086 5089 5092 5096 5099 5103 5107 5111 5115 5119 5123 5127 5131 5135 5139 5143 5147 5151 5155 5158 5161 5165 5168 5172 5175 5179 5182 5186 5189 5193 5197 5200 5203 5205 5208 5211 5214 5218 5221 5224
5035 5037 5039 5041 5043 5045 5046 5048 5050 5052 5054 5056 5058 5060 5062 5064 5065 5067 5070 5072 5075 5077 5080 5084 5087 5090 5093 5097 5101 5104 5108 5111 5115 5119 5123 5128 5132 5136 5140 5143 5147 5150 5153 5156 5160 5164 5167 5171 5174 5177 5181 5185 5189 5192 5195 5198 5201 5204 5206 5209 5213 5216 5219
5034 5036 5038 5039 5041 5043 5044 5046 5048 5049 5051 5054 5056 5058 5060 5062 5064 5066 5068 5071 5073 5076 5079 5082 5085 5088 5091 5094 5098 5101 5105 5108 5112 5116 5120 5124 5128 5132 5136 5139 5142 5145 5148 5152 5156 5159 5163 5166 5170 5173 5177 5181 5184 5187 5190 5193 5196 5199 5202 5204 5207 5210 5214
5032 5034 5035 5037 5039 5040 5042 5043 5045 5047 5050 5052 5054 5057 5059 5061 5063 5065 5067 5069 5071 5074 5077 5080 5082 5085 5089 5092 5096 5099 5102 5106 5109 5113 5117 5121 5125 5128 5131 5135 5138 5141 5144 5148 5152 5156 5159 5162 5165 5169 5173 5176 5179 5182 5185 5188 5191 5194 5197 5200 5202 5205 5208
5030 5032 5033 5035 5037 5038 5039 5041 5043 5046 5048 5050 5053 5055 5057 5059 5061 5063 5065 5067 5070 5072 5074 5077 5080 5083 5087 5090 5093 5097 5100 5103 5107 5111 5114 5118 5121 5125 5128 5131 5134 5137 5140 5144 5148 5152 5155 5158 5161 5165 5168 5172 5174 5177 5180 5183 5186 5189 5192 5195 5197 5200 5203
5029 5030 5032 5033 5035 5036 5038 5040 5042 5044 5046 5048 5050 5052 5055 5057 5059 5061 5063 5065 5068 5070 5072 5075 5078 5081 5084 5088 5091 5094 5098 5101 5104 5108 5111 5115 5118 5121 5124 5127 5130 5134 5137 5141 5144 5148 5151 5155 5158 5161 5164 5167 5170 5173 5175 5178 5180 5183 5187 5190 5193 5195 5198
5027 5029 5030 5032 5033 5035 5036 5038 5041 5043 5044 5046 5048 5050 5052 5054 5056 5059 5061 5064 5066 5068 5071 5073 5076 5079 5082 5086 5089 5092 5095 5098 5102 5105 5108 5112 5115 5117 5121 5124 5128 5131 5135 5138 5141 5145 5148 5151 5154 5157 5160 5163 5166 5168 5171 5173 5176 5179 5182 5185 5188 5191 5193
Wind_Speed
91 92 93 94 96 99 100 99 94 90 87 85 82 78 76 74 73 71 69 68 67 66 65 64 64 64 65 65 66 67 67 67 67 67 65 65 67 67 68 68 67 65 63 63 61 59 57 56 55 53 51 50 51 53 54 56 57 58 58 58 58 57 60
93 94 96 97 99 100 98 93 87 82 80 79 77 74 71 70 69 67 66 65 64 64 63 62 62 62 62 63 63 64 65 65 65 64 62 62 63 65 65 66 66 65 64 62 60 57 56 55 54 52 51 49 50 51 53 54 56 57 57 57 57 56 57
96 97 99 100 100 98 93 86 79 76 74 73 73 70 67 66 65 64 63 63 62 61 61 60 60 60 61 61 61 62 63 63 63 62 60 58 59 61 62 63 63 63 63 61 58 56 55 54 53 52 50 49 49 50 51 53 54 55 56 55 55 54 55
98 100 101 100 98 93 86 78 73 71 70 69 69 67 64 63 62 61 61 60 60 59 59 58 58 58 59 60 59 60 61 62 62 60 58 55 54 57 59 60 61 61 61 59 56 54 53 53 52 52 50 49 49 49 50 51 52 53 54 53 53 52 53
99 100 100 98 93 87 80 73 69 67 66 66 67 64 61 60 60 59 59 58 58 57 57 57 57 57 58 59 58 58 60 61 60 59 56 53 50 52 55 57 58 58 58 57 54 52 52 52 51 51 50 49 49 48 49 50 51 51 51 52 51 50 52
100 99 97 93 87 81 76 70 66 65 63 63 64 62 58 58 58 57 57 56 55 55 55 55 56 56 57 58 57 57 58 60 60 57 55 52 48 48 51 54 55 56 56 54 52 50 50 50 51 51 49 48 48 47 48 49 49 49 49 50 49 49 50
99 97 92 86 80 76 73 69 65 62 60 60 62 60 56 56 56 55 55 54 53 53 53 54 55 55 56 57 57 56 57 59 60 57 53 51 48 46 48 51 53 53 53 52 50 49 49 50 50 49 48 48 48 46 47 47 47 48 48 48 47 48 49
97 93 87 81 76 73 72 68 63 60 58 58 59 58 55 54 54 53 53 52 52 52 52 52 53 53 54 55 54 54 55 57 58 56 53 52 49 46 47 50 51 51 51 50 48 48 49 49 49 48 47 47 47 46 46 46 46 46 46 45 45 46 47
94 89 83 78 74 72 70 66 62 59 57 56 56 56 54 52 51 51 51 50 50 50 50 50 49 49 51 51 50 50 52 55 55 53 52 52 49 46 47 49 50 50 49 48 47 47 49 49 48 48 47 47 46 46 45 45 45 45 44 43 43 44 45
90 85 80 77 74 71 68 64 60 57 55 54 54 54 53 51 49 49 49 48 48 48 48 47 46 47 48 46 46 47 50 53 54 51 51 52 49 46 46 48 49 49 47 47 46 47 49 48 47 47 47 46 46 45 44 45 44 44 43 42 42 42 42
87 81 78 76 72 69 66 62 57 55 53 53 53 53 53 50 47 47 47 46 45 45 45 45 44 45 44 42 43 45 47 51 52 51 51 50 48 46 46 46 47 47 46 46 46 47 48 47 47 47 46 45 45 44 44 44 43 42 41 40 40 40 40
83 78 75 73 69 66 63 59 55 53 51 51 51 51 51 50 46 44 45 44 43 43 43 42 42 41 40 39 42 44 46 49 50 50 49 47 47 47 46 46 46 46 46 46 47 47 47 47 46 46 46 44 44 44 44 43 42 41 40 39 39 39 39
80 75 71 69 65 62 59 55 53 51 49 49 50 49 49 49 45 42 42 42 42 42 41 40 40 38 38 39 41 44 46 47 48 48 46 45 46 47 46 46 46 46 46 46 47 47 46 46 46 45 45 44 43 43 43 43 41 39 39 38 37 37 37
75 71 67 64 60 58 54 50 49 49 48 47 48 47 47 47 43 40 40 41 41 40 39 39 38 37 38 39 40 44 47 47 46 47 45 45 47 47 46 46 46 46 46 46 46 46 46 46 46 45 44 43 42 43 43 42 41 39 38 37 36 35 35
71 66 62 59 56 53 49 46 46 47 47 46 45 45 45 44 41 39 38 38 39 38 38 38 38 36 37 38 39 42 47 48 47 47 47 47 48 48 46 45 46 46 46 46 46 46 46 46 45 45 43 42 41 42 43 41 40 38 37 36 35 34 34
65 61 58 55 52 49 44 42 43 44 45 44 42 42 42 42 39 37 36 36 37 37 37 38 38 37 37 38 39 41 45 48 48 47 46 47 47 47 46 45 46 46 46 46 46 45 45 45 45 44 42 41 42 42 42 41 39 38 36 36 35 33 33
60 56 54 50 48 44 40 39 40 42 42 41 40 40 40 39 38 36 34 34 36 37 37 38 38 38 39 39 38 39 42 45 45 45 45 46 47 47 46 45 45 46 46 45 45 45 45 45 45 43 41 41 42 42 41 41 39 37 36 35 34 33 32
54 51 49 46 44 40 37 36 37 38 38 38 38 38 38 37 36 33 32 34 36 36 38 39 39 39 41 41 38 37 39 41 43 43 43 45 46 46 45 45 44 45 45 44 44 44 44 44 43 42 41 41 41 41 41 41 40 37 35 35 34 33 32
49 46 44 42 39 36 35 34 34 35 36 35 35 36 35 35 33 31 32 34 36 36 38 40 39 38 41 43 41 38 38 39 41 42 42 44 45 45 45 45 45 45 44 43 43 43 43 43 42 41 41 41 41 41 40 40 39 37 35 35 34 33 32
45 41 39 37 35 33 33 31 31 33 33 33 33 33 33 32 31 31 33 35 35 35 38 39 37 36 39 43 43 41 39 38 40 41 41 42 42 43 45 45 45 44 43 42 42 42 42 42 42 41 41 41 40 40 40 40 39 38 36 36 34 33 32
41 37 34 32 31 30 30 29 29 30 31 30 31 31 30 30 30 30 32 32 33 35 38 37 36 36 38 42 44 43 41 39 39 41 41 40 41 44 45 45 44 43 42 42 42 42 42 41 41 40 40 40 40 41 41 40 40 39 37 36 35 34 32
37 34 30 29 28 27 27 27 27 28 28 28 28 29 28 26 25 25 26 28 31 34 35 36 36 37 38 40 42 43 42 40 39 40 40 40 42 44 44 43 43 42 42 41 41 41 41 40 40 40 40 40 40 41 40 40 40 40 38 36 35 34 32
33 30 27 26 26 25 25 25 25 25 26 26 25 26 25 22 20 20 23 27 30 32 33 35 36 37 38 39 40 41 42 41 40 39 40 41 42 43 42 42 42 41 40 40 40 40 39 39 40 41 41 40 40 41 40 41 41 40 38 37 35 33 31
29 26 24 23 23 23 23 23 23 23 23 23 23 23 23 22 20 21 23 26 28 31 33 35 35 36 38 38 38 40 41 41 40 39 40 42 42 41 41 42 41 40 39 40 39 39 39 39 40 41 41 41 41 41 41 41 41 39 37 36 35 33 31
26 23 21 21 21 21 21 21 21 21 22 22 22 22 24 24 23 24 25 26 28 31 33 34 34 34 36 37 37 38 39 39 39 39 39 40 40 40 40 40 39 39 39 39 39 39 39 40 40 41 41 41 41 41 40 40 39 38 37 36 35 33 32
22 20 19 19 19 19 19 20 20 20 20 20 21 23 25 25 24 25 26 27 29 31 33 33 33 33 34 36 36 36 36 37 38 38 38 39 39 39 39 39 39 39 39 38 38 38 39 40 40 41 41 40 40 39 39 39 39 39 38 37 36 35 35
19 18 18 18 18 18 18 19 19 19 20 20 22 24 24 24 23 25 26 27 29 32 32 32 31 32 33 34 35 35 35 36 36 36 37 38 38 38 38 39 39 38 38 38 38 38 39 39 40 40 40 39 39 39 39 39 40 39 39 38 37 37 36
17 16 16 16 17 17 18 18 18 18 19 21 22 23 22 21 21 22 25 27 29 30 29 28 28 31 33 33 33 33 33 34 34 35 36 37 37 37 38 38 38 37 37 38 38 38 39 39 40 40 40 39 39 39 39 39 39 39 39 38 38 38 38
16 15 15 16 16 17 17 17 18 18 19 21 22 21 20 18 17 20 24 27 28 28 26 25 26 29 31 32 32 32 32 32 33 34 35 36 36 37 37 37 36 36 36 36 36 37 38 39 39 39 39 39 39 39 39 38 39 39 39 38 38 39 39
15 14 15 15 16 16 17 17 17 18 19 21 21 20 18 16 14 18 23 26 26 26 26 26 27 28 30 31 31 31 31 32 33 34 34 35 35 36 36 35 35 35 35 35 36 37 38 38 39 39 39 39 38 38 38 37 38 38 38 39 39 40 41
13 14 14 15 15 16 17 17 17 18 20 21 20 19 18 15 13 15 19 23 24 25 26 27 28 29 29 30 30 30 32 33 34 34 34 34 34 34 34 34 34 34 35 36 37 38 38 39 39 39 38 37 37 36 36 36 37 37 38 39 40 41 41
12 13 14 15 15 16 17 17 18 19 20 20 19 18 17 16 13 13 15 19 22 24 25 27 28 28 29 29 30 31 33 34 34 34 34 33 33 33 33 33 34 34 36 37 38 38 39 39 39 38 37 36 36 35 35 35 36 36 38 39 40 41 42
12 13 14 15 16 17 17 17 19 20 20 19 18 17 17 16 14 13 14 18 22 24 26 27 28 28 29 30 30 31 32 33 33 33 33 33 33 33 33 34 34 35 37 38 38 38 38 38 38 37 36 35 35 34 34 34 34 35 37 38 39 41 42
12 13 14 14 15 17 18 19 20 20 19 18 17 17 16 16 16 15 16 19 23 25 27 28 29 29 29 29 30 30 31 31 32 32 33 33 33 33 34 35 36 37 38 39 39 38 38 38 38 36 35 34 34 33 33 33 34 35 36 37 38 40 41
12 13 13 14 15 16 17 19 20 20 19 18 17 17 17 18 17 17 19 21 24 26 27 28 29 29 28 28 28 29 29 30 31 31 31 31 32 34 36 38 38 39 39 39 38 38 38 38 37 35 34 33 33 32 32 33 33 34 34 35 36 38 40
12 13 13 14 15 16 17 19 20 20 19 18 18 18 18 19 19 19 21 23 25 26 27 28 28 27 27 26 27 28 28 29 30 30 30 31 33 35 37 38 38 38 38 38 38 38 37 36 35 34 34 33 32 32 32 32 33 33 33 33 34 35 38
Wind_Direction
302 302 302 302 302 302 300 297 293 289 285 283 281 279 277 276 275 274 273 272 271 270 269 267 266 265 264 263 261 259 257 254 252 249 247 245 244 243 242 242 242 243 245 250 252 252 253 252 252 252 251 249 248 249 250 249 248 247 248 248 247 247 240
303 303 304 304 304 303 300 296 291 286 282 280 279 277 276 275 274 272 271 270 269 269 268 266 265 264 264 263 260 258 256 253 249 247 245 244 243 242 242 242 242 241 243 248 250 251 251 251 251 250 250 249 247 248 250 249 249 248 248 248 248 247 242
305 306 306 306 305 302 298 294 289 284 280 279 278 277 275 273 272 271 270 269 268 267 267 265 264 264 263 262 260 258 255 251 246 244 244 243 243 242 242 242 241 241 242 245 248 249 249 250 250 249 249 248 247 248 250 250 249 248 248 248 248 248 244
307 307 307 306 305 301 297 292 287 282 279 278 277 276 274 273 271 270 269 268 267 266 265 264 264 263 263 262 260 257 254 250 244 241 241 242 243 243 242 241 241 240 241 243 246 247 247 248 248 248 248 247 246 247 249 250 249 248 248 249 249 249 245
309 308 307 306 303 299 295 290 285 281 278 277 276 275 274 272 271 269 268 267 266 265 264 264 263 263 263 262 260 257 253 248 242 239 239 240 243 244 242 241 240 239 240 242 243 244 245 246 247 247 247 246 246 247 249 250 249 248 248 249 249 249 245
309 308 307 304 301 297 293 289 284 280 278 276 276 275 273 271 270 269 267 266 264 263 263 263 263 263 263 262 260 257 251 245 239 236 236 237 240 244 242 240 239 239 239 241 241 241 242 244 245 246 246 246 245 247 248 249 249 248 248 248 249 249 246
309 308 305 302 298 295 292 288 283 280 277 275 275 274 272 270 269 267 266 264 263 262 262 263 263 263 263 263 261 256 249 241 235 233 233 234 237 243 243 239 238 237 238 239 239 238 240 242 243 245 246 245 245 246 247 248 248 247 247 248 249 249 247
309 306 303 299 296 294 291 287 283 280 276 274 274 273 271 269 267 266 264 263 261 261 261 263 263 263 265 266 262 253 244 237 232 230 231 232 235 241 242 238 236 236 236 236 236 236 238 240 241 243 245 245 245 246 247 247 247 247 246 247 249 249 247
307 304 300 297 294 292 290 286 282 279 276 273 273 272 270 268 266 264 263 260 259 259 260 262 262 263 269 268 258 245 236 231 229 229 230 230 232 237 240 237 234 233 233 234 234 234 236 238 240 242 244 244 244 245 246 246 246 246 246 246 248 248 247
306 302 298 295 293 291 289 285 280 278 276 273 272 270 268 267 265 263 261 259 258 258 259 260 260 264 270 264 249 237 230 226 227 229 229 228 229 234 238 236 233 231 232 232 232 233 235 237 240 242 242 243 243 244 245 245 245 245 245 246 247 247 246
303 299 296 293 291 289 288 283 278 276 274 272 270 269 267 265 263 261 260 257 257 258 257 258 260 265 265 255 241 234 229 225 227 230 229 227 228 232 236 235 231 230 231 232 231 232 234 236 239 241 241 241 242 243 243 244 244 244 244 245 247 247 245
301 297 294 291 288 287 285 280 276 275 273 270 268 266 265 264 261 259 257 256 256 256 255 256 260 262 257 246 237 232 228 226 228 229 226 224 226 231 234 233 229 228 229 231 231 233 234 236 238 240 240 239 240 241 242 242 242 242 243 244 245 246 245
300 296 293 290 286 285 282 277 273 273 271 267 265 264 263 262 260 256 254 255 256 254 253 255 259 257 249 241 235 230 229 229 226 223 222 222 225 229 231 230 227 225 227 229 230 232 234 235 237 238 238 238 238 239 240 241 241 241 242 243 244 246 245
299 295 292 289 285 283 279 273 270 271 269 265 263 262 261 261 258 254 252 254 254 251 251 255 256 250 243 240 235 228 228 229 224 220 221 224 225 228 229 227 224 223 225 227 229 232 234 235 236 237 237 236 236 237 238 239 239 240 240 242 243 245 244
297 293 291 287 284 282 276 269 267 268 265 263 262 260 259 258 257 253 251 252 250 248 251 254 252 244 239 239 236 229 228 228 223 220 222 226 227 228 227 225 223 223 225 226 228 230 232 233 235 235 235 235 234 235 236 237 238 238 239 241 242 243 243
295 291 289 285 283 279 272 266 265 265 263 261 259 258 257 256 255 253 251 248 245 247 251 251 246 239 235 235 234 229 227 225 221 220 225 227 227 227 225 223 222 223 224 225 226 228 230 232 234 234 234 233 232 233 234 236 237 237 238 240 241 242 242
293 289 286 283 281 276 268 263 264 262 260 259 257 255 255 255 254 253 249 244 243 248 251 246 240 235 231 231 230 227 224 221 219 223 227 227 225 225 224 222 222 223 224 224 225 226 228 230 233 233 232 231 231 231 232 234 235 235 236 238 240 240 241
291 287 283 281 278 272 264 262 261 259 257 256 255 254 254 254 254 251 246 242 245 249 246 239 235 232 227 227 227 226 223 221 221 225 226 225 225 225 222 221 222 223 224 224 224 225 227 230 232 232 231 230 230 230 230 232 233 233 234 236 239 239 240
290 284 280 278 274 267 263 261 258 255 254 253 252 254 255 255 253 249 245 246 249 247 238 232 232 230 225 224 226 226 224 222 222 223 223 224 224 223 221 221 223 223 223 223 223 224 226 229 230 230 229 229 229 229 229 231 232 232 232 234 237 238 239
288 283 278 274 268 263 261 259 254 252 251 250 251 254 254 253 252 250 250 251 247 237 229 227 229 229 223 222 224 226 224 222 220 220 222 224 222 220 221 222 222 222 222 222 223 224 225 227 228 228 227 227 227 227 227 229 230 230 231 232 234 237 238
286 282 277 270 264 260 258 255 250 248 249 249 251 252 252 252 253 252 251 246 235 225 222 224 226 226 222 221 222 223 222 221 220 220 222 223 221 219 220 221 220 221 221 221 222 224 225 227 227 226 226 225 225 225 226 227 229 229 229 230 232 234 236
284 279 273 266 260 257 254 251 247 246 248 249 249 250 251 251 251 248 241 231 223 219 219 222 225 224 221 220 220 219 219 220 220 220 222 223 220 218 219 219 219 220 221 220 222 223 224 226 226 225 225 224 223 224 225 225 228 229 229 229 230 232 234
282 276 269 261 257 254 250 246 244 245 246 246 246 248 247 242 239 236 229 221 218 219 221 223 225 224 222 219 217 215 215 218 220 221 222 221 219 217 217 218 219 220 220 220 221 223 224 224 224 224 223 223 222 223 223 224 226 228 228 228 229 230 231
278 272 264 256 252 250 246 243 243 244 244 244 244 243 237 230 228 230 227 223 221 222 224 226 227 225 222 219 215 211 212 217 220 220 219 218 217 217 217 218 218 218 218 219 220 221 222 223 223 223 222 221 221 221 221 223 225 227 227 228 229 229 230
275 268 259 251 247 244 242 241 241 241 241 242 242 236 229 227 230 233 232 230 227 225 225 226 227 225 221 217 213 210 213 217 218 217 216 216 216 216 216 216 216 216 217 218 219 220 221 221 222 222 221 220 220 220 221 222 226 228 228 227 228 228 227
271 263 253 246 242 238 238 240 240 239 240 241 236 229 226 229 236 238 236 233 228 225 224 225 225 221 216 212 211 211 213 215 214 213 213 213 214 215 215 214 215 216 216 217 218 219 220 220 220 221 220 219 219 220 220 221 224 226 227 226 226 226 225
264 256 247 241 236 234 236 239 239 238 240 237 229 225 227 235 243 243 235 228 224 222 223 223 219 213 209 208 209 210 210 210 211 211 211 212 212 212 213 214 215 215 216 217 218 218 219 219 219 219 219 218 218 219 219 220 222 225 226 226 226 225 225
257 247 241 234 231 233 236 238 237 238 238 233 225 224 231 242 247 239 226 218 217 218 219 217 211 206 206 207 209 209 210 210 211 211 210 210 210 211 212 213 214 215 216 216 217 217 217 218 218 218 218 217 217 218 219 219 221 224 226 227 226 225 225
251 239 232 227 228 234 237 235 236 239 235 228 225 228 236 245 243 226 213 210 212 215 216 213 208 206 206 207 207 208 209 210 211 211 209 209 210 211 212 213 214 215 216 216 216 216 216 216 216 217 217 217 217 217 219 220 221 223 226 227 226 225 225
243 232 226 224 227 234 237 235 237 237 230 224 225 230 236 242 234 215 208 208 211 214 214 212 209 207 205 205 205 205 205 206 208 209 209 209 210 211 211 213 214 214 214 214 214 214 215 216 216 216 217 217 217 217 218 219 221 223 225 226 225 225 225
235 226 223 225 229 234 236 236 235 229 222 220 225 229 234 235 226 213 209 209 210 211 209 207 205 204 202 202 202 202 202 203 205 207 208 209 210 210 211 211 211 212 212 212 212 213 214 215 216 217 217 217 217 218 218 219 220 222 224 225 225 225 225
227 222 222 227 232 234 235 234 228 220 215 217 222 226 229 229 222 214 211 210 209 208 205 203 202 202 200 200 200 201 202 204 205 206 207 207 208 208 209 209 209 209 211 211 212 212 213 215 216 217 216 217 218 218 219 219 220 221 222 224 225 225 225
221 219 222 228 233 233 230 225 219 213 211 214 219 222 224 226 224 219 215 213 210 207 205 204 204 203 202 201 202 203 204 206 206 207 206 206 206 205 205 205 206 208 210 211 212 212 213 215 216 217 216 217 218 219 220 220 220 221 221 222 223 224 224
219 219 224 230 233 232 226 218 211 208 208 212 216 219 219 220 220 218 214 212 209 206 204 204 204 204 203 203 204 205 206 207 207 207 207 206 205 203 202 203 204 206 209 211 212 212 213 214 216 217 217 217 218 219 220 221 221 221 220 220 220 221 223
219 221 226 231 232 230 223 214 208 205 206 209 213 214 214 213 212 209 208 208 206 205 204 204 204 204 204 205 206 207 207 208 208 208 208 206 204 202 203 204 205 207 209 211 212 212 213 214 215 216 216 216 217 218 219 221 222 221 220 219 219 220 221
222 223 229 231 230 224 216 211 207 205 205 207 209 210 209 209 208 205 205 206 206 206 206 206 206 206 205 205 206 207 208 209 209 209 208 206 203 203 204 205 206 208 210 211 213 213 213 214 215 216 216 217 217 217 218 220 222 222 220 218 218 219 220